| time (UTC) | temp C | wind direction | speed KPH | gust KPH | rain 1hr cm | rain 24hr cm | rain mn cm | humidity % | barometer mb |
| 20260506221600 | 16 | 64 | 1.6 | 8.0 | 0.05 | 0.13 | 0.13 | 81 | 1014.1 |
| 20260506220109 | 16 | 43 | 3.2 | 12.9 | 0.03 | 0.10 | 0.10 | 82 | 1013.7 |
| 20260506214559 | 16 | 53 | 8.0 | 14.5 | 0.00 | 0.08 | 0.08 | 75 | 1013.8 |
| 20260506213057 | 16 | 56 | 4.8 | 16.1 | 0.00 | 0.08 | 0.08 | 74 | 1013.8 |
| 20260506211558 | 16 | 27 | 8.0 | 14.5 | 0.00 | 0.08 | 0.08 | 74 | 1013.9 |
| 20260506210056 | 16 | 36 | 4.8 | 12.9 | 0.00 | 0.08 | 0.08 | 74 | 1013.9 |
| 20260506204557 | 16 | 61 | 4.8 | 16.1 | 0.00 | 0.08 | 0.08 | 74 | 1014.1 |
| 20260506203100 | 16 | 67 | 4.8 | 16.1 | 0.00 | 0.08 | 0.08 | 74 | 1013.9 |
| 20260506201554 | 16 | 304 | 9.7 | 19.3 | 0.00 | 0.08 | 0.08 | 75 | 1014.3 |
| 20260506200054 | 15 | 308 | 6.4 | 17.7 | 0.00 | 0.08 | 0.08 | 76 | 1014.5 |
| 20260506194554 | 15 | 55 | 9.7 | 17.7 | 0.00 | 0.08 | 0.08 | 77 | 1014.7 |
| 20260506193058 | 15 | 22 | 6.4 | 16.1 | 0.00 | 0.08 | 0.08 | 78 | 1015.0 |
| 20260506191552 | 14 | 309 | 8.0 | 16.1 | 0.00 | 0.08 | 0.08 | 78 | 1015.2 |
| 20260506190053 | 13 | 323 | 4.8 | 14.5 | 0.00 | 0.08 | 0.08 | 79 | 1015.2 |
| 20260506184651 | 13 | 313 | 4.8 | 9.7 | 0.00 | 0.08 | 0.08 | 80 | 1015.4 |
| 20260506183058 | 13 | 300 | 3.2 | 14.5 | 0.00 | 0.08 | 0.08 | 80 | 1015.5 |
| 20260506181601 | 13 | 38 | 6.4 | 22.5 | 0.00 | 0.08 | 0.08 | 81 | 1014.8 |
| 20260506180050 | 13 | 348 | 12.9 | 22.5 | 0.00 | 0.08 | 0.08 | 82 | 1014.0 |
| 20260506174549 | 12 | 13 | 8.0 | 20.9 | 0.00 | 0.08 | 0.08 | 84 | 1014.2 |
| 20260506173116 | 12 | 38 | 8.0 | 19.3 | 0.00 | 0.08 | 0.08 | 85 | 1014.5 |
| 20260506171554 | 12 | 21 | 9.7 | 19.3 | 0.00 | 0.08 | 0.08 | 85 | 1014.7 |
| 20260506170055 | 12 | 12 | 8.0 | 16.1 | 0.00 | 0.08 | 0.08 | 86 | 1014.6 |
| 20260506164546 | 12 | 51 | 9.7 | 19.3 | 0.00 | 0.08 | 0.08 | 87 | 1014.5 |
| 20260506163046 | 11 | 42 | 8.0 | 17.7 | 0.00 | 0.08 | 0.08 | 88 | 1014.8 |
| 20260506161545 | 11 | 23 | 6.4 | 19.3 | 0.00 | 0.08 | 0.08 | 88 | 1014.7 |
| 20260506160057 | 11 | 304 | 4.8 | 17.7 | 0.00 | 0.08 | 0.08 | 88 | 1014.6 |
| 20260506154547 | 11 | 38 | 8.0 | 17.7 | 0.05 | 0.08 | 0.08 | 89 | 1014.1 |
| 20260506153043 | 11 | 319 | 8.0 | 20.9 | 0.08 | 0.08 | 0.08 | 90 | 1013.8 |
| 20260506151545 | 11 | 344 | 9.7 | 17.7 | 0.08 | 0.08 | 0.08 | 90 | 1014.5 |
| 20260506150043 | 11 | 83 | 3.2 | 12.9 | 0.08 | 0.08 | 0.08 | 88 | 1015.7 |
| 20260506144544 | 11 | 304 | 3.2 | 8.0 | 0.03 | 0.03 | 0.03 | 86 | 1016.5 |
| 20260506143038 | 11 | 44 | 4.8 | 14.5 | 0.00 | 0.00 | 0.00 | 85 | 1015.7 |
| 20260506141536 | 11 | 15 | 11.3 | 24.1 | 0.00 | 0.00 | 0.00 | 85 | 1014.1 |
| 20260506140036 | 11 | 31 | 8.0 | 20.9 | 0.00 | 0.00 | 0.00 | 84 | 1014.3 |
| 20260506134531 | 11 | 341 | 6.4 | 17.7 | 0.00 | 0.00 | 0.00 | 83 | 1014.8 |
| 20260506133027 | 11 | 321 | 8.0 | 19.3 | 0.00 | 0.00 | 0.00 | 83 | 1014.1 |
| 20260506131541 | 11 | 360 | 8.0 | 19.3 | 0.00 | 0.00 | 0.00 | 82 | 1013.8 |
| 20260506130035 | 12 | 5 | 8.0 | 22.5 | 0.00 | 0.00 | 0.00 | 81 | 1013.7 |
| 20260506124519 | 12 | 355 | 8.0 | 22.5 | 0.00 | 0.00 | 0.00 | 80 | 1013.2 |
| 20260506123017 | 12 | 38 | 8.0 | 16.1 | 0.00 | 0.00 | 0.00 | 78 | 1013.0 |
| 20260506121515 | 12 | 310 | 9.7 | 22.5 | 0.00 | 0.00 | 0.00 | 77 | 1013.0 |
| 20260506120017 | 13 | 40 | 12.9 | 22.5 | 0.00 | 0.00 | 0.00 | 77 | 1012.7 |
| 20260506114508 | 13 | 336 | 11.3 | 20.9 | 0.00 | 0.00 | 0.00 | 77 | 1012.6 |
| 20260506113006 | 13 | 35 | 9.7 | 24.1 | 0.00 | 0.00 | 0.00 | 76 | 1012.4 |
| 20260506111509 | 13 | 20 | 6.4 | 16.1 | 0.00 | 0.00 | 0.00 | 77 | 1012.1 |
| 20260506110106 | 13 | 32 | 8.0 | 17.7 | 0.00 | 0.00 | 0.00 | 77 | 1011.6 |
| 20260506104559 | 13 | 5 | 8.0 | 16.1 | 0.00 | 0.00 | 0.00 | 77 | 1011.3 |
| 20260506103055 | 13 | 304 | 8.0 | 20.9 | 0.00 | 0.00 | 0.00 | 77 | 1011.2 |
| 20260506101553 | 13 | 28 | 4.8 | 19.3 | 0.00 | 0.00 | 0.00 | 77 | 1010.8 |
| 20260506100050 | 14 | 34 | 6.4 | 17.7 | 0.00 | 0.00 | 0.00 | 77 | 1010.6 |
| 20260506094601 | 14 | 38 | 4.8 | 14.5 | 0.00 | 0.00 | 0.00 | 78 | 1010.4 |
| 20260506093047 | 14 | 313 | 4.8 | 17.7 | 0.00 | 0.00 | 0.00 | 78 | 1010.4 |
| 20260506091548 | 14 | 57 | 4.8 | 16.1 | 0.00 | 0.00 | 0.00 | 78 | 1010.3 |
| 20260506090042 | 15 | 26 | 11.3 | 19.3 | 0.00 | 0.00 | 0.00 | 78 | 1010.1 |
| 20260506084543 | 15 | 22 | 8.0 | 17.7 | 0.00 | 0.00 | 0.00 | 79 | 1010.1 |
| 20260506083038 | 15 | 351 | 4.8 | 17.7 | 0.00 | 0.00 | 0.00 | 79 | 1009.9 |
| 20260506081535 | 15 | 5 | 4.8 | 16.1 | 0.00 | 0.00 | 0.00 | 79 | 1009.7 |
| 20260506073029 | 16 | 30 | 4.8 | 16.1 | 0.00 | 0.00 | 0.00 | 79 | 1009.4 |
| 20260506071529 | 16 | 333 | 4.8 | 12.9 | 0.00 | 0.00 | 0.00 | 79 | 1009.4 |
| 20260506061521 | 16 | 32 | 6.4 | 17.7 | 0.00 | 0.00 | 0.00 | 79 | 1009.3 |
| 20260506044505 | 17 | 35 | 9.7 | 17.7 | 0.00 | 0.00 | 0.00 | 77 | 1009.1 |
| 20260506043003 | 18 | 17 | 9.7 | 19.3 | 0.00 | 0.00 | 0.00 | 77 | 1009.0 |
| 20260506041559 | 18 | 360 | 9.7 | 20.9 | 0.00 | 0.00 | 0.00 | 76 | 1009.1 |
| 20260506040056 | 19 | 325 | 8.0 | 17.7 | 0.00 | 0.00 | 0.00 | 75 | 1009.2 |
| 20260506034553 | 19 | 32 | 8.0 | 19.3 | 0.00 | 0.00 | 0.00 | 74 | 1008.8 |
| 20260506033049 | 20 | 24 | 8.0 | 19.3 | 0.00 | 0.00 | 0.00 | 73 | 1008.3 |
| 20260506031550 | 20 | 5 | 8.0 | 16.1 | 0.00 | 0.00 | 0.00 | 73 | 1007.9 |
| 20260506030044 | 20 | 5 | 9.7 | 19.3 | 0.00 | 0.00 | 0.00 | 73 | 1007.4 |
| 20260506024547 | 20 | 331 | 8.0 | 22.5 | 0.00 | 0.00 | 0.00 | 72 | 1007.3 |
| 20260506023038 | 21 | 53 | 4.8 | 19.3 | 0.00 | 0.00 | 0.00 | 72 | 1007.1 |
| 20260506021536 | 21 | 355 | 8.0 | 17.7 | 0.00 | 0.00 | 0.00 | 72 | 1006.9 |
| 20260506020034 | 22 | 21 | 9.7 | 19.3 | 0.00 | 0.00 | 0.00 | 71 | 1006.5 |
| 20260506014536 | 22 | 36 | 8.0 | 17.7 | 0.00 | 0.00 | 0.00 | 70 | 1005.9 |
| 20260506013029 | 22 | 67 | 6.4 | 19.3 | 0.00 | 0.00 | 0.00 | 70 | 1005.6 |
| 20260506011526 | 23 | 36 | 6.4 | 14.5 | 0.00 | 0.00 | 0.00 | 69 | 1005.1 |
| 20260506010032 | 23 | 323 | 6.4 | 14.5 | 0.00 | 0.00 | 0.00 | 69 | 1005.2 |
| 20260506004525 | 23 | 331 | 9.7 | 19.3 | 0.00 | 0.00 | 0.00 | 67 | 1005.2 |
| 20260506003025 | 24 | 325 | 1.6 | 14.5 | 0.00 | 0.00 | 0.00 | 66 | 1004.7 |
| 20260506001532 | 24 | 9 | 6.4 | 19.3 | 0.00 | 0.00 | 0.00 | 64 | 1004.7 |
| 20260506000023 | 25 | 36 | 9.7 | 22.5 | 0.00 | 0.00 | 0.00 | 63 | 1004.8 |
| 20260505234528 | 26 | 360 | 8.0 | 22.5 | 0.00 | 0.00 | 0.00 | 63 | 1004.4 |
| 20260505233022 | 26 | 317 | 9.7 | 20.9 | 0.00 | 0.00 | 0.00 | 63 | 1004.0 |
| 20260505231522 | 27 | 297 | 11.3 | 20.9 | 0.00 | 0.00 | 0.00 | 63 | 1003.8 |
| 20260505230043 | 28 | 333 | 9.7 | 17.7 | 0.00 | 0.00 | 0.00 | 60 | 1003.6 |
| 20260505224521 | 29 | 5 | 6.4 | 20.9 | 0.00 | 0.00 | 0.00 | 55 | 1003.5 |
| 20260505223020 | 30 | 47 | 6.4 | 16.1 | 0.00 | 0.00 | 0.00 | 52 | 1003.3 |